Theta_e
317 316 316 315 314 315 315 313 313 314 314 314 314 315 315 315 315 315 315 315 315 315 317 316 316 318 309 297 297 315 317 313 310 309 304 302 297 295 289 291 294 292 294 297 297 298 299
316 316 316 315 314 315 314 314 314 313 315 314 315 315 315 315 314 313 314 314 314 314 315 315 315 317 303 290 310 316 313 309 309 306 302 301 298 299 295 293 291 293 294 294 296 296 297
316 315 315 315 314 315 315 314 314 313 314 314 315 314 314 313 313 313 313 313 314 314 314 315 315 312 302 297 309 313 311 307 307 306 302 304 303 299 297 292 297 294 291 293 293 295 295
318 316 315 315 314 314 314 314 314 313 314 314 314 314 314 313 312 313 313 313 314 314 314 314 315 307 295 308 308 308 309 305 306 307 306 306 306 301 298 298 295 291 290 285 289 293 295
319 316 316 315 315 315 314 313 313 313 313 313 313 313 312 311 311 312 312 314 315 315 315 315 305 300 293 310 304 307 306 302 304 305 305 307 304 297 296 289 287 289 282 283 285 293 292
319 318 316 316 315 315 314 313 313 313 313 313 312 312 311 311 311 311 313 314 314 312 312 311 307 296 297 297 302 304 305 304 300 301 298 297 295 288 289 288 279 281 283 282 282 288 291
319 319 317 316 316 314 313 313 313 313 313 312 311 311 310 310 311 311 309 302 294 294 299 295 295 295 298 302 304 302 304 301 300 297 287 292 288 284 287 288 288 287 285 283 285 289 288
319 319 318 316 316 317 315 316 315 315 312 311 311 311 310 310 311 312 305 297 297 297 290 298 298 298 301 302 295 297 303 293 292 288 293 291 285 289 290 289 288 287 284 283 287 289 288
321 319 318 317 316 317 318 317 315 314 312 312 311 310 309 309 310 306 301 300 305 303 288 292 298 298 298 300 294 294 299 295 290 288 288 286 288 292 290 287 286 285 283 283 283 286 287
322 321 320 318 317 317 317 317 315 313 312 312 310 309 308 309 303 302 299 305 304 301 278 281 292 296 300 299 293 301 301 296 292 288 289 289 292 289 288 287 288 282 289 287 286 284 278
322 321 320 320 318 317 316 316 314 312 313 312 309 308 308 308 299 299 302 304 303 294 269 285 292 303 300 295 295 295 303 297 289 289 292 287 288 288 288 289 290 286 291 288 287 284 283
322 322 320 320 319 317 316 316 314 313 314 311 309 308 307 303 301 303 303 301 296 279 269 281 293 292 291 294 295 297 297 299 297 292 291 290 293 293 292 293 293 293 290 289 286 283 277
319 321 321 320 319 318 316 313 314 313 313 311 309 308 306 307 298 303 302 295 279 272 285 283 286 290 289 289 291 291 290 288 286 284 279 285 288 295 295 290 293 291 287 277 274 275 274
317 319 321 320 319 318 317 315 313 314 312 310 308 307 305 305 304 302 297 286 273 279 283 290 289 289 287 289 289 289 287 284 288 286 285 281 275 288 292 289 286 286 283 279 274 275 275
315 317 318 319 319 318 317 315 314 313 312 308 306 301 301 302 304 300 291 275 278 281 288 288 288 283 284 288 288 286 286 285 288 289 281 279 280 289 292 292 290 285 281 288 283 279 278
314 315 316 317 319 318 317 315 314 313 311 308 299 296 297 304 303 296 287 283 283 290 291 290 283 286 281 283 283 283 284 288 288 291 290 287 281 288 289 291 290 287 290 282 281 276 275
313 314 315 316 316 317 316 315 314 313 310 308 300 294 300 303 300 291 283 283 288 294 293 289 286 284 285 284 285 283 284 287 290 290 291 288 285 285 286 285 285 285 283 286 285 283 277
310 311 314 315 314 317 316 315 313 313 310 305 297 288 304 303 288 286 281 287 295 291 292 291 290 288 285 285 285 284 284 287 292 291 287 289 287 279 283 287 290 289 286 285 282 278 283
307 309 310 313 314 314 315 314 313 313 309 300 295 294 303 301 284 284 287 291 293 290 290 290 289 290 289 286 283 285 287 292 293 290 287 289 284 278 279 282 286 284 286 286 287 285 281
306 307 309 312 313 312 310 313 312 312 310 298 294 288 294 296 293 286 285 288 289 292 292 292 290 291 288 286 288 286 286 291 293 292 298 293 285 283 278 282 283 281 284 285 284 279 282
306 306 307 310 313 313 312 313 312 311 310 299 292 287 292 287 289 290 287 286 286 287 291 292 288 289 287 283 284 284 286 287 290 294 291 289 282 283 284 285 283 283 283 284 281 283 282
307 307 307 309 312 313 313 312 312 311 309 299 289 286 290 286 287 289 289 285 287 288 289 287 287 288 288 285 286 284 286 284 285 287 286 288 282 282 280 283 281 281 282 282 282 283 284
305 306 306 307 308 313 313 312 311 311 308 298 292 291 290 288 284 286 285 287 288 289 290 291 290 287 286 288 289 288 288 288 287 284 284 284 282 279 277 281 280 277 280 281 282 284 285
304 305 307 307 306 308 312 311 311 310 308 298 292 291 285 283 285 286 288 290 289 288 286 288 289 287 288 290 289 287 285 285 285 286 287 283 282 279 276 278 271 281 282 284 284 285 287
304 304 305 306 306 307 309 311 311 310 309 300 294 291 287 282 285 285 287 287 287 288 288 289 289 289 289 287 283 280 278 280 282 284 284 285 282 278 274 274 279 279 281 281 281 283 283
303 304 304 305 306 307 309 311 311 310 310 304 297 293 289 285 285 288 286 287 285 284 285 287 289 289 289 284 281 276 275 276 276 279 283 283 282 279 276 274 274 280 283 282 283 279 284
302 303 303 304 305 306 309 311 311 310 310 305 299 298 291 286 288 288 285 286 287 285 284 286 286 285 287 281 279 276 276 277 275 276 277 278 277 276 276 276 280 285 285 283 276 281 285
300 302 302 302 304 305 308 311 310 310 309 305 298 300 296 286 288 289 289 287 287 287 285 286 285 285 283 280 279 278 277 278 277 278 279 278 276 275 276 274 273 285 282 278 283 284 286
298 299 301 302 302 304 305 307 310 310 309 306 297 297 298 292 290 291 291 291 291 289 288 286 286 285 286 280 279 278 278 277 277 276 280 278 282 279 280 280 285 284 283 285 286 286 286
Wind_Speed
6 6 6 5 5 6 6 4 4 6 6 7 8 8 9 9 10 11 12 12 13 13 12 12 12 12 5 4 5 4 4 2 3 4 4 3 3 1 2 3 4 9 10 10 12 11 10
7 7 8 7 6 6 4 6 7 6 8 9 10 10 10 11 12 12 12 14 14 12 11 11 10 7 2 3 1 4 3 2 1 1 1 1 3 2 5 6 6 4 9 13 13 14 10
8 8 8 9 8 8 8 7 6 7 8 9 10 10 11 12 13 12 13 14 14 12 10 9 8 1 1 8 2 3 4 2 1 2 3 3 3 2 4 6 5 6 13 14 17 12 8
9 9 8 9 8 9 9 9 7 8 9 10 10 11 11 12 13 14 14 15 14 13 10 7 5 2 6 4 1 3 4 4 0 1 2 3 3 5 4 5 5 6 4 9 1 2 7
10 9 9 9 9 10 10 10 10 9 9 10 10 11 11 13 12 14 15 17 17 12 6 4 2 3 8 4 1 2 3 3 3 2 3 3 2 4 4 4 7 6 12 12 9 7 7
10 11 11 11 10 10 10 10 9 10 10 10 9 11 10 12 13 14 15 18 6 1 1 3 1 2 4 2 3 2 1 3 1 4 1 2 2 2 2 4 7 4 7 5 7 5 4
12 13 11 11 12 10 9 10 10 10 8 9 10 10 10 11 12 12 9 4 4 2 0 6 3 3 3 2 1 4 3 2 1 2 1 2 3 9 10 12 14 13 13 16 6 6 6
15 14 13 12 14 13 12 10 10 9 7 9 8 8 10 10 12 12 2 2 2 3 6 5 6 6 6 2 4 3 4 1 2 4 2 2 10 11 9 10 13 16 19 20 19 14 12
17 17 16 14 14 15 13 11 8 8 7 9 7 8 9 8 10 6 2 2 2 4 1 7 5 3 2 4 4 4 8 2 4 4 5 6 9 4 7 11 15 17 20 16 17 6 12
19 18 18 17 15 15 12 10 7 9 9 6 6 8 7 7 3 3 2 1 2 3 6 7 2 4 2 2 5 5 7 4 3 5 5 8 1 6 11 14 9 17 12 20 20 12 8
21 20 19 18 16 15 13 9 8 9 9 5 7 7 5 4 3 1 2 1 2 4 5 5 2 1 1 4 5 2 4 3 6 4 2 8 5 8 13 5 6 9 10 15 19 15 13
22 22 22 20 19 17 15 11 9 11 8 3 7 5 4 2 1 4 0 3 4 8 7 4 1 2 2 3 4 1 2 1 4 5 7 17 1 4 4 8 13 13 13 16 11 6 9
19 25 24 21 20 19 18 16 11 12 8 5 6 5 5 1 2 0 2 4 6 5 1 3 4 2 3 4 4 5 4 3 3 4 4 7 4 3 4 7 6 7 6 5 3 3 6
18 19 25 24 23 22 20 17 15 12 9 5 5 6 3 4 0 1 3 5 3 5 6 2 3 2 5 3 5 2 3 4 5 4 4 4 11 5 5 7 4 5 4 3 6 4 5
19 19 17 25 25 23 21 19 16 13 10 7 2 1 2 4 5 1 5 3 9 7 4 4 2 2 4 3 5 2 5 4 5 9 5 3 7 5 7 7 4 1 3 3 5 4 4
21 20 19 19 26 26 23 21 18 15 14 12 3 2 3 5 6 4 3 6 5 5 3 3 4 5 4 2 2 2 3 4 3 7 5 5 9 5 6 1 5 5 2 4 3 6 5
21 21 20 20 21 27 25 24 22 18 18 16 2 2 3 5 4 4 5 8 5 7 5 6 5 3 7 3 5 3 6 5 4 2 6 4 3 7 4 3 3 2 4 2 2 3 4
17 21 22 20 19 29 29 26 25 23 22 13 3 3 4 3 3 3 4 7 4 3 2 4 3 7 6 3 4 4 6 5 4 1 4 2 3 5 10 9 3 4 1 3 3 5 3
14 18 23 23 22 19 32 30 29 29 25 6 5 3 2 2 6 5 5 5 5 4 5 5 5 7 4 5 4 5 4 5 5 2 3 2 2 5 10 6 4 3 4 2 3 0 4
12 14 18 20 22 20 21 32 28 34 27 7 4 7 4 3 2 4 5 6 5 5 4 5 5 4 4 5 7 6 3 3 1 4 4 3 3 5 5 10 4 9 10 6 3 3 6
19 20 19 23 24 25 25 32 32 33 29 7 4 6 7 9 10 14 5 3 5 4 4 6 3 8 8 5 3 6 5 3 4 3 2 4 5 4 9 14 7 14 16 12 7 9 5
14 18 20 27 23 24 23 25 32 34 30 8 6 5 2 4 3 20 12 6 9 4 8 5 6 4 8 8 9 6 4 3 6 3 2 1 4 3 8 6 2 10 13 9 7 8 10
17 16 17 23 20 17 19 26 30 32 20 4 3 2 4 6 6 9 8 9 11 8 6 6 10 4 6 13 7 8 6 4 3 2 1 2 1 4 6 5 9 6 5 5 4 5 4
18 18 16 20 19 21 21 27 30 32 27 3 3 3 4 4 5 8 7 11 9 9 4 2 5 6 3 2 3 0 2 5 4 6 5 2 1 1 6 7 4 6 6 5 7 8 5
18 19 19 19 18 19 17 32 32 33 32 3 3 4 4 3 5 4 7 5 4 3 5 4 4 3 3 3 2 4 3 2 0 3 5 5 2 2 1 2 8 4 5 4 4 6 4
19 21 21 18 21 22 18 32 33 34 34 11 3 3 3 5 6 5 6 6 5 4 1 3 2 0 6 1 1 1 2 1 2 1 4 4 2 2 1 3 4 4 4 2 1 5 5
20 20 21 23 25 25 21 34 34 33 31 13 3 5 4 2 3 4 4 7 6 3 3 2 4 2 5 1 2 3 3 3 2 3 4 1 0 4 3 4 9 8 6 3 1 5 4
19 20 21 22 24 24 21 33 37 37 34 15 3 5 6 2 4 1 0 4 3 3 5 4 4 1 3 2 3 4 3 3 1 3 5 6 6 4 2 3 7 4 3 2 5 3 2
20 19 20 22 23 26 28 27 31 31 31 15 3 2 3 2 2 1 2 1 1 2 6 2 3 4 5 3 2 2 2 1 3 3 1 3 6 4 9 8 4 3 4 3 3 2 3
Wind_Direction
258 256 265 266 254 282 276 288 300 309 319 322 322 323 323 324 325 327 326 323 319 322 330 329 335 344 3 13 257 220 199 333 3 27 42 26 17 317 268 285 292 249 282 274 284 280 261
263 257 264 264 279 285 268 284 295 304 317 314 315 316 321 324 323 322 320 321 320 319 319 325 327 343 49 340 232 189 205 293 270 106 241 147 262 299 268 237 237 256 280 281 283 267 272
241 252 264 258 252 273 278 277 288 294 299 303 307 311 317 317 316 317 320 316 314 314 313 309 315 333 324 246 318 218 199 233 188 195 257 211 194 197 341 300 285 283 288 284 268 253 237
238 244 257 261 257 262 272 280 286 288 295 299 310 309 313 311 313 317 317 312 308 304 296 298 291 75 251 252 344 237 203 268 184 314 251 282 231 255 223 273 302 281 260 284 354 280 242
248 249 260 256 257 261 270 274 285 283 287 292 295 300 306 307 310 313 315 309 304 291 270 244 83 127 274 317 223 240 188 248 320 263 239 243 209 224 209 241 271 220 274 254 288 228 240
245 250 258 263 259 264 265 275 276 280 284 291 297 299 304 305 311 314 317 314 290 351 153 94 252 355 286 267 208 175 86 116 332 310 348 183 170 253 221 199 248 247 246 233 246 299 254
247 245 248 260 259 262 259 269 268 272 276 290 296 297 299 305 308 317 337 6 14 356 257 201 196 244 264 267 191 210 156 140 207 200 283 205 253 250 242 223 247 273 266 266 255 262 320
239 240 243 252 260 256 252 257 261 257 277 290 295 299 299 301 310 314 343 79 151 201 313 253 251 264 260 191 296 241 138 132 237 270 64 226 252 258 240 245 245 249 258 266 273 260 253
236 236 235 237 256 265 258 252 261 265 281 280 292 302 296 299 315 322 245 156 133 130 94 294 231 242 227 151 249 263 155 149 236 270 222 216 257 297 250 246 238 237 243 258 254 267 257
237 234 234 231 236 257 261 235 250 274 271 264 295 293 290 299 342 304 260 175 109 104 64 281 248 275 151 150 270 203 191 149 259 271 274 267 230 256 274 264 237 265 242 254 259 259 262
236 233 229 226 224 235 248 233 251 263 256 260 282 281 277 266 300 180 281 128 103 59 23 259 216 43 124 196 304 183 179 112 239 254 251 266 254 268 280 251 222 254 276 256 251 246 253
240 233 230 224 218 224 226 226 237 248 237 218 269 257 256 278 247 249 27 64 44 46 264 311 191 243 277 186 257 151 169 160 232 270 226 255 252 238 251 263 253 270 278 260 255 234 250
291 246 227 225 217 218 228 231 232 243 213 203 260 241 214 176 231 287 95 49 29 133 310 249 239 180 235 251 262 200 203 201 215 299 312 300 221 211 209 279 238 246 286 307 331 179 235
286 283 238 220 219 216 222 205 224 235 197 185 248 243 244 225 318 119 70 54 121 224 211 265 154 199 241 198 244 256 271 277 246 183 297 322 322 202 173 221 261 226 189 291 298 302 270
281 282 279 222 213 217 210 202 203 212 168 144 217 245 244 238 189 101 87 81 218 206 198 159 345 211 272 254 206 334 222 233 238 179 179 292 263 268 197 214 186 233 232 220 274 242 264
271 272 271 265 225 210 210 191 188 186 156 145 154 217 230 138 138 71 94 238 245 205 166 113 174 190 243 236 229 177 259 221 249 185 172 265 285 242 287 238 239 232 289 311 279 302 288
271 273 269 266 253 210 206 194 183 176 159 148 175 213 180 148 83 64 211 226 260 232 178 170 186 253 237 248 206 238 256 276 216 243 174 219 228 291 349 214 270 311 286 237 256 248 307
286 276 271 274 267 231 199 198 182 166 153 146 172 190 162 131 130 202 206 206 222 223 150 235 173 210 223 208 254 251 235 232 187 189 268 213 260 278 267 287 240 220 270 285 280 311 258
274 281 275 268 265 253 195 196 178 161 154 138 184 141 155 182 192 214 258 257 224 180 197 190 225 201 194 207 247 217 240 264 194 219 231 186 254 301 334 355 7 322 274 238 305 349 263
285 289 293 272 257 232 252 184 183 163 162 132 155 161 173 203 194 190 211 237 222 201 194 181 225 170 199 233 227 265 240 296 286 224 208 170 218 211 270 266 275 296 285 284 205 272 291
283 298 298 285 263 237 218 196 176 171 162 128 185 205 179 187 216 210 230 241 181 213 203 178 258 202 194 238 238 228 233 278 293 291 221 181 243 230 249 259 258 266 269 276 217 239 244
309 293 302 320 258 239 194 199 179 173 165 186 162 157 155 177 156 194 209 230 195 203 159 224 221 220 207 215 204 223 211 177 239 320 288 328 271 339 291 288 257 283 275 252 238 264 259
338 321 318 306 347 221 184 183 175 169 161 172 165 279 145 162 142 154 212 199 201 156 232 190 206 169 229 238 232 244 214 213 206 217 291 285 311 5 269 323 313 303 266 242 265 227 220
335 335 332 314 339 344 194 186 177 175 183 124 175 133 127 208 178 198 183 195 189 196 188 174 155 158 241 326 296 76 213 236 227 243 205 237 13 147 279 342 347 248 306 249 254 276 274
341 338 342 344 335 333 302 181 185 183 189 151 145 153 153 178 182 196 181 185 167 179 196 180 214 188 71 354 343 341 337 356 254 218 202 192 124 280 329 262 282 309 347 344 6 312 359
344 349 352 348 336 329 317 187 181 185 190 186 153 143 114 128 235 170 161 182 159 170 348 199 89 228 80 83 92 181 247 233 292 193 51 106 86 137 338 314 280 256 313 299 256 309 353
347 350 351 351 347 334 313 184 182 180 190 184 173 148 87 138 255 152 168 179 134 125 133 138 160 120 77 178 183 176 248 196 257 240 178 148 170 201 225 264 283 258 280 289 34 276 340
337 346 348 352 343 343 9 186 184 180 179 181 158 184 150 195 272 228 18 130 106 140 151 179 94 338 85 207 180 201 174 231 294 225 187 180 155 207 149 217 288 211 322 57 228 288 298
337 339 345 349 350 350 354 351 180 174 170 164 134 153 116 162 246 294 291 291 354 179 134 200 154 151 177 112 249 120 185 145 177 278 145 250 193 187 186 219 236 265 242 293 177 242 327